Regional Weather Roundup
Issued by NWS

Home | Current Version | Previous Version | Text Only | Print | Product List | Glossary On
Versions: 1 2 3 4 5 6 7 8 9 10 11 12 13 14 15 16 17 18 19 20 21 22 23 24 25 26 27 28 29 30 31 32 33 34 35 36 37 38 39 40 41 42 43 44 45 46 47 48 49 50
000
ASUS43 KBIS 231102
RWRND

NORTH DAKOTA REGIONAL WEATHER ROUNDUP
NATIONAL WEATHER SERVICE BISMARCK ND
600 AM CDT TUE MAY 23 2017

NOTE: "FAIR" INDICATES FEW OR NO CLOUDS BELOW 12,000 FEET WITH NO
SIGNIFICANT WEATHER AND/OR OBSTRUCTIONS TO VISIBILITY.


NDZ001>003-009>011-017-231200-
NORTHWEST NORTH DAKOTA

CITY           SKY/WX    TMP DP  RH WIND       PRES   REMARKS
WILLISTON      FAIR      35  30  82 CALM      30.17R
MINOT          FAIR      42  36  79 NW9       30.12R
MINOT AFB      CLEAR     42  36  77 N7        30.12R
$$

NDZ018>021-031>035-040>046-231200-
SOUTHWEST NORTH DAKOTA

CITY           SKY/WX    TMP DP  RH WIND       PRES   REMARKS
BISMARCK       CLOUDY    53  36  52 N18G25    30.05S
DICKINSON      FAIR      34  31  88 W8        30.12S
GARRISON         N/A     39  34  82 NW10      30.11R
HETTINGER ARPT CLEAR     32  30  92 W5        30.14S
$$

NDZ004>008-012>016-024-026-027-054-231200-
NORTHEAST NORTH DAKOTA

CITY           SKY/WX    TMP DP  RH WIND       PRES   REMARKS
GRAND FORKS    CLOUDY    49  45  86 N16       29.95R
GRND FRKS AFB  CLOUDY    46  46  98 N15       29.96S
DEVILS LAKE    CLOUDY    45  40  82 N15       30.03S
$$

NDZ022-023-025-028>030-036>039-047>053-231200-
SOUTHEAST NORTH DAKOTA

CITY           SKY/WX    TMP DP  RH WIND       PRES   REMARKS
FARGO          LGT RAIN  48  46  93 N14       29.90S
JAMESTOWN      CLOUDY    46  43  89 N14       29.97R
$$




USA.gov is the U.S. government's official web portal to all federal, state and local government web resources and services.